Location: Berlise
(49.6641°N, 4.1077°E)
Time: 23:47:25
(UTC+00:00)

Cosmos 2208 Rocket - Pass Details

Date: 27 January 2021
Orbit: 755 x 805 km, 74.0° (Epoch: 01 March)

Event Time Altitude Azimuth Distance (km) Brightness Sun altitude
Exits shadow 05:23:25 22° 228° (SW) 1,703 5.4 -19.2°
Maximum altitude 05:26:51 55° 299° (WNW) 958 4.1 -18.6°
Drops below altitude 10° 05:32:10 10° 17° (NNE) 2,370 6.6 -17.8°
Sets 05:34:37 0° 22° (NNE) 3,296 7.5 -17.4°
